IRIDIUM 83 [+]

Last updated on Wed Oct 10 2018 00:08:07 GMT+0000 (Coordinated Universal Time)

1 25531U 98066E 18282.48620917 .00000110 00000-0 32050-4 0 9999 2 25531 86.3970 149.7716 0002129 82.9662 277.1776 14.34217073 43054
UTC large
Height (km)
Speed (km/s)
/
Latitude / Longitude
Inclination (degrees)
Orbital Period (minutes)
Azimuth
Elevation
Range (km)
Doppler Factor

Next 0 passes for location: London (51.5072 / 0.1276)

Sorry there are no passes over London.